Back to catalog

STARLINK-38118

AliveCommunicationsSSO
NORAD 100108·PAYLOAD·🇺🇸 United States

Launched Jul 21, 2026 from Vandenberg Space Force Base

Loading…

Next Passes (next 24 hours)

TLE

FreshSource: Space-Track

Epoch: Sep 14, 2026, 00:04 UTC

1 A0108U 26166H   26257.00327009  .00207587  00000-0  13562-2 0  9991
2 A0108  97.2833 275.0800 0001371 110.2273 249.9140 15.75238706  8587

Track STARLINK-38118 in real time with AllMySat

Download on the App Store